Change the Weather History Date:

Wednesday, October 2, 2013

  Actual Average Record
Temperature  
Mean Temperature 60 °F -  
Max Temperature 73 °F 69 °F 86 °F (1971)
Min Temperature 46 °F 48 °F 28 °F (1961)
Degree Days  
Heating Degree Days 6    
Growing Degree Days 10 (Base 50)    
Moisture  
Dew Point 46 °F    
Average Humidity 74    
Maximum Humidity 94    
Minimum Humidity 19    
Precipitation  
Precipitation 0.00 in - - ()
Sea Level Pressure  
Sea Level Pressure 30.05 in    
Wind  
Wind Speed 1 mph (East)    
Max Wind Speed 8 mph    
Max Gust Speed -    
Visibility 10 miles    
Events      
Averages and records for this station are not official NWS values.
T = Trace of Precipitation, MM = Missing Value Source: NWS Daily Summary

Daily Weather History Graph

Daily Weather History Graph

Search for Another Location

Airport or City:

Trip Planner

Search our weather history database for the weather conditions in past years. The results will help you decide how hot, cold, wet, or windy it might be!

Date:

Astronomy

Oct. 02, 2013 Rise Set
Actual Time 6:50 AM CDT 6:31 PM CDT
Civil Twilight 6:22 AM CDT 6:59 PM CDT
Nautical Twilight 5:49 AM CDT 7:32 PM CDT
Astronomical Twilight 5:16 AM CDT 8:05 PM CDT
Moon 4:20 AM CDT (10/2) 5:09 PM CDT (10/2)
Length of Visible Light 12h 36m
Length of Day
11h 40m
Waning Crescent, 6% of the Moon is Illuminated
Oct 2
Waning Crescent
Oct 4
New
Oct 11
First Quarter
Oct 18
Full
Oct 26
Last Quarter

Hourly Weather History & Observations

Time (CDT) Temp. Dew Point Humidity Pressure Visibility Wind Dir Wind Speed Gust Speed Precip Events Conditions
12:15 AM 60.8 °F 53.6 °F 77% 29.98 in 10.0 mi WNW 3.5 mph - N/A   Clear
12:35 AM 60.8 °F 53.6 °F 77% 29.98 in 10.0 mi West 3.5 mph - N/A   Clear
12:55 AM 59.0 °F 51.8 °F 77% 29.98 in 10.0 mi West 3.5 mph - N/A   Clear
1:15 AM 59.0 °F 51.8 °F 77% 29.99 in 10.0 mi Calm Calm - N/A   Clear
1:35 AM 59.0 °F 51.8 °F 77% 30.00 in 10.0 mi Calm Calm - N/A   Clear
1:55 AM 55.4 °F 51.8 °F 88% 30.01 in 10.0 mi Calm Calm - N/A   Clear
2:15 AM 59.0 °F 50.0 °F 72% 30.01 in 10.0 mi Calm Calm - N/A   Clear
2:35 AM 55.4 °F 50.0 °F 82% 30.01 in 10.0 mi Calm Calm - N/A   Clear
2:55 AM 55.4 °F 48.2 °F 77% 30.02 in 10.0 mi Calm Calm - N/A   Clear
3:15 AM 53.6 °F 50.0 °F 88% 30.02 in 10.0 mi Calm Calm - N/A   Clear
3:35 AM 51.8 °F 50.0 °F 94% 30.03 in 10.0 mi Calm Calm - N/A   Clear
3:55 AM 50.0 °F 48.2 °F 94% 30.03 in 10.0 mi Calm Calm - N/A   Clear
4:15 AM 50.0 °F 48.2 °F 94% 30.04 in 10.0 mi Calm Calm - N/A   Clear
4:35 AM 50.0 °F 46.4 °F 87% 30.05 in 10.0 mi Calm Calm - N/A   Clear
4:55 AM 50.0 °F 46.4 °F 87% 30.06 in 10.0 mi Calm Calm - N/A   Clear
5:15 AM 50.0 °F 46.4 °F 87% 30.06 in 10.0 mi Calm Calm - N/A   Clear
5:35 AM 46.4 °F 44.6 °F 93% 30.06 in 10.0 mi Calm Calm - N/A   Clear
5:55 AM 50.0 °F 44.6 °F 82% 30.07 in 10.0 mi Calm Calm - N/A   Clear
6:15 AM 50.0 °F 44.6 °F 82% 30.08 in 10.0 mi Calm Calm - N/A   Clear
6:35 AM 46.4 °F 42.8 °F 87% 30.08 in 10.0 mi Calm Calm - N/A   Clear
6:45 AM 46.4 °F 44.6 °F 93% 30.08 in 10.0 mi Calm Calm - N/A   Clear
6:55 AM 46.4 °F 42.8 °F 87% 30.09 in 10.0 mi Calm Calm - N/A   Clear
7:45 AM 50.0 °F 44.6 °F 82% 30.10 in 10.0 mi Calm Calm - N/A   Clear
8:45 AM 57.2 °F 46.4 °F 67% 30.11 in 10.0 mi Calm Calm - N/A   Clear
9:45 AM 64.4 °F 37.4 °F 37% 30.13 in 10.0 mi Calm Calm - N/A   Clear
10:45 AM 69.8 °F 32.0 °F 25% 30.13 in 10.0 mi ENE 5.8 mph - N/A   Clear
11:45 AM 71.6 °F 37.4 °F 29% 30.12 in 10.0 mi East 4.6 mph - N/A   Clear
1:45 PM 73.4 °F 32.0 °F 22% 30.09 in 10.0 mi Variable 5.8 mph - N/A   Clear
2:45 PM 73.4 °F 28.4 °F 19% 30.07 in 10.0 mi East 5.8 mph - N/A   Clear
4:45 PM 69.8 °F 33.8 °F 27% 30.04 in 10.0 mi ESE 8.1 mph - N/A   Clear
5:45 PM 68.0 °F 42.8 °F 40% 30.04 in 10.0 mi ESE 4.6 mph - N/A   Clear
7:45 PM 62.6 °F 50.0 °F 63% 30.05 in 10.0 mi Calm Calm - N/A   Clear
8:45 PM 57.2 °F 48.2 °F 72% 30.05 in 10.0 mi Calm Calm - N/A   Clear
9:15 PM 55.4 °F 50.0 °F 82% 30.04 in 10.0 mi Calm Calm - N/A   Clear
9:35 PM 55.4 °F 50.0 °F 82% 30.03 in 10.0 mi Calm Calm - N/A   Scattered Clouds
9:55 PM 55.4 °F 50.0 °F 82% 30.03 in 10.0 mi Calm Calm - N/A   Mostly Cloudy
10:15 PM 55.4 °F 50.0 °F 82% 30.03 in 10.0 mi Calm Calm - N/A   Overcast
10:35 PM 55.4 °F 50.0 °F 82% 30.03 in 10.0 mi Calm Calm - N/A   Mostly Cloudy
10:55 PM 53.6 °F 50.0 °F 88% 30.03 in 10.0 mi Calm Calm - N/A   Scattered Clouds
11:15 PM 55.4 °F 50.0 °F 82% 30.03 in 10.0 mi Calm Calm - N/A   Clear
11:35 PM 55.4 °F 50.0 °F 82% 30.02 in 10.0 mi Calm Calm - N/A   Clear
11:55 PM 53.6 °F 50.0 °F 88% 30.02 in 10.0 mi Calm Calm - N/A   Scattered Clouds